Tracking 27380 objects as of 6-Jun-2023
HD Live streaming from Space Station
objects crossing your sky now

OPS 4682 DEB

Track OPS 4682 DEB now!
10-day predictions


NORAD ID: 27545
Int'l Code: 1965-027BH
Perigee: 1,278.7 km
Apogee: 1,309.0 km
Inclination: 90.3 °
Period: 111.3 minutes
Semi major axis: 7664 km
RCS: 0.0218 m2 (small)
Launch date: April 3, 1965
Source: United States (US)
Launch site: AIR FORCE WESTERN TEST RANGE (AFWTR)

Note: This is SATELLITE DEBRIS
Your satellite tracking list
Your tracking list is empty




NASA's NSSDC Master Catalog

Two Line Element Set (TLE):
1 27545U 65027BH  23155.28961719  .00000227  00000-0  79833-3 0  9996
2 27545  90.2535 342.3716 0019731 263.5557 272.0819 12.93735823 11788
Source of the keplerian elements: AFSPC